Dewpoint
25 26 26 25 25 25 25 26 25 25 26 27 26 27 27 28 28 29 29 29 30 30 30 31 31 31 31 30 30 30 30 29 28 28 27 26 25 23 22 22 20 19 19 19 21 20 18 16 16 17 21 19 19 19 19 20 21 20 19 18 16 14 11 8 -4 -2 14 16 18 18 21 19 18 19 19 19 19 17 17 17 17 17 17 18 19
25 25 25 24 24 24 24 24 25 25 25 24 23 24 23 25 27 27 27 27 28 29 29 30 30 30 30 30 30 29 29 29 28 27 26 25 24 25 23 20 19 18 18 16 17 17 16 15 15 15 17 16 16 16 17 18 19 16 15 16 12 13 13 6 -0 2 7 13 16 16 18 18 15 18 18 17 17 17 16 16 17 18 17 17 17
24 24 25 24 23 24 23 23 23 23 23 23 22 22 23 23 24 25 25 25 26 27 28 28 29 29 30 30 29 29 28 27 27 26 25 24 23 22 23 20 19 18 17 16 15 15 15 14 13 13 21 14 14 15 16 16 16 14 13 13 10 10 13 9 -0 -2 9 9 14 14 14 16 14 14 17 17 16 16 15 16 17 19 20 19 18
24 24 24 23 22 21 22 22 21 22 22 23 23 23 23 23 24 24 24 25 25 25 26 27 27 27 28 28 28 28 27 27 26 25 25 23 22 21 20 19 19 18 17 16 15 15 14 14 13 13 15 14 14 13 15 15 15 14 13 13 10 10 11 11 9 -2 10 9 12 11 15 13 14 13 15 13 12 14 14 15 18 18 19 20 19
23 22 22 21 21 20 20 21 21 21 22 23 23 23 23 23 23 23 23 23 24 24 24 25 25 26 27 26 27 26 26 26 25 24 23 23 22 21 20 19 18 18 18 17 19 16 16 15 14 15 16 15 14 14 14 15 15 15 14 14 12 10 11 10 7 4 7 10 10 10 12 11 13 11 12 11 13 13 15 15 16 17 18 19 21
22 22 21 21 21 20 20 20 21 21 22 22 23 23 23 24 24 23 23 23 23 23 23 22 23 24 24 25 25 25 25 24 24 23 23 22 21 21 20 19 18 17 17 17 16 17 16 16 16 16 16 15 15 14 15 15 16 15 15 15 13 12 12 11 8 7 7 8 9 8 8 8 8 10 12 11 11 12 13 15 15 17 17 18 19
22 20 20 20 21 20 20 20 21 21 21 22 23 24 24 25 24 24 24 24 23 23 23 23 23 23 23 24 24 24 25 25 24 24 22 22 21 20 20 20 18 17 17 16 16 16 16 16 16 16 17 16 15 15 16 16 16 15 15 15 14 13 13 11 10 7 6 7 6 6 6 7 6 6 11 13 12 12 11 14 15 17 17 17 18
20 19 18 18 19 20 20 21 21 22 23 23 24 24 25 25 25 25 26 25 25 24 25 24 24 24 23 23 23 24 24 24 24 24 23 23 22 21 21 21 19 17 17 16 15 15 16 16 16 17 17 16 15 16 16 16 16 15 15 14 14 13 13 14 12 11 9 10 8 6 5 5 6 7 14 13 12 13 14 14 11 15 16 17 15
19 17 17 16 18 18 20 21 22 21 22 23 24 25 26 26 26 26 26 26 27 25 25 25 24 24 24 24 23 23 23 24 24 23 23 23 22 22 22 22 21 19 17 16 15 15 15 15 16 15 17 20 22 21 19 19 20 21 18 16 17 18 19 19 18 16 14 14 11 6 5 6 7 7 11 11 11 9 13 14 12 14 14 14 14
18 18 16 17 17 18 19 20 20 21 22 22 23 25 26 27 27 27 27 27 26 26 25 25 24 24 24 23 23 24 24 26 27 29 29 25 23 24 24 25 24 20 18 17 16 15 14 14 17 21 22 23 23 24 24 24 24 22 19 18 21 22 22 20 17 17 17 15 14 11 11 11 8 8 9 11 11 14 15 14 12 13 12 11 14
17 16 16 17 18 18 18 19 20 21 21 22 26 27 27 28 28 27 28 28 27 26 26 25 24 24 24 23 23 23 24 26 28 30 31 32 27 24 26 26 25 23 20 19 18 16 15 14 14 19 22 23 23 25 29 30 28 27 25 24 24 25 24 21 19 19 16 16 16 15 13 14 10 10 9 11 13 14 14 14 12 10 12 12 10
17 17 16 17 17 18 19 20 22 22 23 25 26 28 29 29 28 28 27 27 27 27 26 25 25 24 24 24 23 23 23 27 29 30 31 31 31 27 27 27 26 24 22 20 18 17 16 14 14 16 16 18 18 21 25 27 28 27 27 26 26 26 25 24 21 18 19 16 16 17 17 16 12 11 10 12 14 14 15 14 11 11 13 14 12
17 17 18 18 17 17 18 21 23 23 23 23 25 28 29 29 29 28 28 27 27 27 25 25 25 25 25 24 24 24 24 27 29 30 31 31 32 31 27 27 26 26 24 22 20 18 17 16 14 13 18 22 22 18 19 22 27 28 27 26 25 25 25 24 24 24 21 20 19 18 16 13 13 12 12 13 16 15 15 14 11 12 11 13 13
16 17 17 18 18 17 19 23 22 21 20 22 24 27 28 28 27 26 27 27 27 26 26 26 26 25 25 25 24 24 24 27 28 29 30 31 32 32 29 28 27 26 24 22 21 19 18 17 16 15 14 18 19 17 19 20 23 25 25 23 21 22 25 25 24 22 19 18 19 20 15 14 14 13 15 18 17 17 16 15 14 14 16 14 14
17 16 17 17 18 20 19 20 20 20 19 20 23 27 28 28 27 26 25 25 25 25 24 25 27 27 27 27 26 25 24 27 28 28 29 30 31 31 30 29 28 27 25 23 21 20 19 18 16 16 15 18 18 19 21 23 24 23 24 23 22 20 20 20 20 18 16 14 13 14 14 14 13 16 17 18 18 16 17 18 18 18 18 16 17
16 16 16 16 17 18 18 19 18 18 17 19 21 25 28 27 25 24 23 23 24 24 25 26 27 27 27 28 26 26 25 28 28 29 29 29 29 29 30 29 29 28 28 24 22 19 18 17 15 19 17 19 21 25 24 23 23 23 22 22 22 21 20 21 22 21 17 14 13 14 16 16 19 19 20 18 18 19 19 20 19 18 17 17 15
16 14 16 15 17 17 17 16 16 17 17 17 20 24 26 25 22 21 22 22 23 22 24 25 25 26 26 27 26 26 26 27 28 28 29 29 29 28 29 29 29 29 28 26 23 20 18 15 15 16 18 17 22 26 26 25 22 22 22 22 22 21 20 19 23 24 22 20 20 22 22 23 24 24 24 23 19 20 19 18 17 17 16 15 14
14 15 14 17 15 15 17 17 16 17 16 17 19 22 23 21 19 18 18 19 20 22 22 22 23 25 26 26 26 26 26 26 27 28 28 29 28 28 27 27 28 29 28 26 24 23 19 22 21 15 16 16 23 26 27 25 21 21 22 21 20 20 20 20 19 21 23 22 22 23 24 24 24 25 24 23 23 23 19 17 18 16 15 15 12
13 13 13 12 13 16 16 16 15 15 15 16 18 21 20 17 16 16 15 16 17 18 20 21 22 23 25 25 26 25 26 27 27 28 28 28 28 28 27 27 27 28 27 26 25 23 19 21 24 20 16 18 24 25 27 25 22 21 21 21 20 20 19 18 20 22 21 21 19 20 21 23 22 20 19 23 23 24 19 18 16 15 14 13 10
11 11 11 13 16 16 16 16 16 15 15 16 18 18 16 13 14 13 13 13 13 14 16 19 22 22 23 24 25 24 24 25 26 27 27 28 28 28 26 25 26 27 28 26 24 23 20 20 21 24 23 23 24 25 26 27 23 22 22 20 20 19 19 21 22 23 22 22 21 20 20 20 20 18 18 20 22 21 19 15 14 14 12 8 6
12 12 11 14 15 15 14 14 14 14 14 15 15 14 12 11 11 12 12 11 13 13 16 17 18 19 21 23 23 24 24 25 26 26 27 27 28 28 27 27 27 27 26 27 25 23 20 17 18 23 24 24 24 25 26 27 26 23 22 21 21 22 22 22 22 24 23 23 23 22 22 21 19 19 18 16 14 13 13 13 11 9 9 6 4
10 14 14 15 14 14 14 13 13 12 13 13 11 10 10 10 10 9 7 9 12 13 14 15 16 18 19 22 22 22 24 25 24 25 26 27 27 28 26 27 27 27 26 26 25 23 19 16 14 20 24 24 24 25 26 27 27 21 21 24 24 24 21 21 22 23 23 22 21 20 17 16 15 15 14 13 12 11 9 9 8 4 4 4 5
12 13 13 13 12 12 12 12 11 11 10 10 9 8 8 8 8 9 9 9 11 12 13 14 15 16 18 18 20 22 23 23 25 25 26 27 27 28 28 28 28 28 27 26 25 23 20 17 15 21 23 24 24 25 25 26 26 24 24 25 25 24 23 20 20 21 20 20 19 17 16 15 14 13 13 12 10 9 7 4 5 5 5 5 5
13 12 10 10 10 10 10 9 9 8 7 7 6 6 6 6 6 4 5 6 6 8 9 12 14 16 16 16 17 18 22 22 23 25 24 26 27 27 28 29 29 28 28 27 26 22 20 17 18 21 23 24 25 25 25 25 24 26 26 25 25 24 21 19 19 19 18 18 16 16 15 14 13 12 12 12 9 7 5 3 2 4 5 5 5
10 9 8 8 8 8 8 8 7 7 6 5 4 3 4 5 2 3 4 4 7 7 8 11 11 13 14 15 15 16 18 20 20 22 25 25 26 27 28 28 29 29 28 28 27 24 22 22 21 22 22 24 24 25 25 25 27 27 27 25 24 22 20 18 18 17 16 16 15 15 14 13 13 12 10 9 8 5 7 6 6 8 9 9 8
7 7 7 6 6 6 5 5 5 5 4 3 2 1 1 1 1 1 2 3 5 6 7 8 10 12 13 14 15 16 19 20 20 21 22 23 24 25 26 27 27 28 28 29 29 28 26 24 23 22 22 22 22 23 23 24 25 26 26 26 23 22 19 18 17 16 14 14 15 14 12 11 11 9 8 7 8 6 7 6 6 6 6 4 3
3 3 3 2 2 3 2 1 -0 0 1 0 0 0 -0 -0 0 1 2 3 4 5 6 8 9 10 12 13 15 16 16 18 18 19 19 19 20 21 23 24 26 27 27 27 29 28 26 24 23 24 23 25 25 26 26 26 26 26 27 25 23 21 18 17 16 15 14 14 14 12 10 10 9 8 7 7 7 6 7 6 5 3 4 3 3
-1 -1 -0 -1 -1 -1 -1 0 -1 -2 -2 -2 -2 -2 -2 -0 -0 0 -0 0 1 2 3 5 7 8 9 11 13 14 15 16 16 18 18 18 18 19 20 22 23 23 25 26 27 27 25 25 25 23 23 23 23 24 24 25 25 25 25 23 22 19 18 19 18 15 14 14 12 10 9 8 7 7 7 6 6 6 6 4 3 3 3 3 3
-4 -4 -3 -4 -4 -3 -3 -3 -3 -3 -3 -3 -2 -2 -3 -3 -2 -1 1 1 2 1 1 2 4 6 6 7 9 11 13 14 16 20 20 21 19 18 19 20 21 22 24 26 26 25 23 22 21 21 21 21 21 21 22 23 23 24 23 22 19 17 17 15 14 14 13 12 9 8 7 6 6 5 4 4 3 4 5 3 4 2 3 3 2
-7 -7 -6 -6 -5 -5 -5 -5 -4 -5 -5 -5 -4 -3 2 8 5 -0 -0 7 12 14 14 6 5 5 6 7 10 10 11 14 19 19 22 24 24 24 23 23 23 23 24 26 27 23 20 20 20 19 19 19 19 20 20 21 21 22 21 21 17 16 15 14 14 13 12 11 9 7 6 5 4 3 2 2 2 2 4 5 2 3 2 2 2
-9 -9 -8 -9 -7 -7 -7 -7 -6 -6 -6 -6 -5 -5 -6 -3 9 13 14 13 15 16 17 18 19 20 15 13 15 20 22 23 24 25 25 24 25 25 25 25 25 25 26 24 24 21 19 19 19 19 19 19 19 19 20 20 19 18 18 17 16 15 15 13 13 12 10 9 7 5 4 3 2 2 1 1 1 1 3 4 3 3 2 1 1
-10 -11 -9 -9 -9 -8 -9 -7 -7 -7 -7 -7 -6 -7 -7 -7 -5 5 11 13 14 16 18 19 20 21 21 20 18 17 21 23 24 24 25 25 26 26 26 26 26 26 27 27 23 20 19 18 18 19 19 19 19 19 19 19 16 16 15 14 13 14 14 13 12 10 8 6 4 4 3 2 2 1 1 1 2 1 1 2 1 1 1 1 0
-9 -9 -9 -9 -10 -9 -9 -9 -8 -8 -8 -7 -7 -6 -8 -7 -7 -7 -2 8 12 14 15 16 17 18 20 22 23 23 23 23 24 24 25 25 26 26 26 26 27 27 27 25 23 19 19 18 18 18 18 19 19 19 18 17 15 14 13 12 12 13 13 12 10 8 6 4 3 2 2 2 1 1 1 1 1 0 1 1 1 1 0 -0 -0
-9 -9 -10 -10 -10 -10 -10 -9 -9 -9 -9 -8 -8 -8 -8 -7 -8 -7 -7 -7 -5 1 8 11 13 15 17 18 18 19 20 21 23 24 26 26 26 27 26 25 26 27 27 23 23 20 19 18 18 18 18 18 18 18 17 15 14 13 12 11 11 11 11 9 7 6 4 5 2 2 2 1 1 0 -0 0 1 1 1 1 0 -0 -0 -1 -1
-9 -9 -8 -8 -10 -10 -10 -10 -9 -9 -9 -9 -9 -8 -8 -7 -7 -7 -8 -7 -7 -7 -5 -3 5 11 6 9 12 15 17 20 20 20 21 24 27 27 27 24 23 23 24 24 24 21 18 18 17 17 18 17 17 16 15 14 13 12 10 9 9 6 5 5 6 6 4 3 2 1 1 1 1 0 -0 -0 -0 -0 -0 0 -0 -0 -1 -1 -1
-10 -10 -10 -10 -9 -10 -10 -9 -9 -9 -9 -9 -8 -8 -8 -8 -8 -8 -7 -6 -6 -6 -4 -3 -1 7 11 13 15 16 17 17 19 22 22 23 25 27 23 23 23 22 22 23 23 22 19 18 17 17 17 17 16 15 14 13 12 11 9 8 4 4 3 5 4 3 2 1 1 1 1 -0 -0 -0 -0 0 1 0 0 0 -0 -0 -0 -1 -1
-10 -10 -11 -10 -10 -10 -10 -9 -8 -9 -5 -7 -7 -8 -8 -7 -7 -7 -7 -7 -6 -6 -5 -3 -1 0 6 6 10 15 18 17 18 21 23 23 24 25 23 23 22 22 21 21 22 22 20 18 17 17 17 16 15 14 13 12 11 10 11 5 4 3 2 2 2 1 1 -0 0 1 -0 -1 -1 -0 -0 -1 -0 -1 -1 -0 -0 -0 -0 0 1
-9 -10 -10 -9 -9 -8 -9 -9 -9 -7 -8 -8 -8 -8 -8 -7 -7 -7 -6 -6 -4 -2 -1 -1 3 1 2 4 11 12 14 18 19 20 22 23 23 23 24 23 22 22 21 20 21 21 19 17 17 16 16 16 15 14 13 11 11 9 6 6 5 4 6 4 3 0 -0 -1 -1 -1 -1 -1 -1 -1 -1 -1 -1 -1 -1 -1 -1 -1 1 1 1
-9 -7 -7 -6 -2 -8 -8 -8 -8 -9 -9 -9 -9 -8 -8 -8 -8 -8 -7 -6 -5 -5 -4 -3 -1 1 3 6 8 12 13 12 14 16 17 19 21 23 23 23 22 21 21 21 20 19 19 18 16 15 15 14 13 13 12 10 9 6 4 5 4 4 3 0 -1 -1 -2 -2 -2 -1 -1 -1 -1 -1 -2 -2 -1 -1 -1 -1 -1 -1 -1 -1 -1
-9 -9 -8 -6 -7 -8 -8 -8 -8 -9 -9 -9 -9 -9 -8 -8 -8 -8 -7 -7 -6 -5 -5 -5 -4 -2 1 4 6 12 13 13 14 15 16 17 19 22 23 22 22 21 21 21 20 18 17 17 15 14 13 12 12 10 7 7 6 4 4 2 2 2 -0 -1 -2 -2 -2 -2 -2 -2 -2 -2 -3 -3 -3 -2 -2 -1 -1 -1 -1 -1 -1 -1 -1
-9 -9 -7 -5 -6 -7 -7 -8 -8 -8 -8 -8 -9 -9 -9 -8 -7 -7 -7 -7 -6 -6 -5 -4 -3 -3 -0 4 11 13 12 14 14 15 15 16 18 21 22 22 21 21 20 18 17 17 16 14 13 12 11 10 9 6 6 5 4 2 2 2 2 1 -1 -2 -2 -2 -2 -2 -3 -3 -4 -4 -4 -4 -4 -3 1 -1 -2 -2 -1 -1 -0 1 1
-9 -8 -8 -8 -7 -7 -8 -8 -7 -7 -7 -7 -8 -8 -7 -7 -7 -7 -7 -6 -5 -4 -4 -3 -2 1 6 10 13 15 12 14 16 16 16 17 19 20 21 21 20 19 16 16 15 14 12 10 10 9 9 7 6 5 4 3 2 2 2 2 0 -1 -2 -2 -2 -2 -3 -4 -4 -4 -5 -5 -5 -4 -4 2 -1 -1 -2 -1 -0 -0 0 -0 -0
-8 -7 -7 -6 -6 -6 -6 -6 -6 -7 -7 -7 -7 -5 -5 -6 -6 -6 -6 -5 -4 -4 -3 -2 -1 2 5 12 13 15 13 13 13 16 17 13 11 11 13 14 15 14 14 12 11 10 9 8 8 8 7 6 5 4 2 1 1 2 2 2 -1 -2 -3 -4 -4 -4 -4 -5 -5 -5 -5 -3 -3 -3 -2 -1 -2 -1 -1 -1 -1 -1 -1 -1 -1
-6 -6 -6 -6 -6 -5 -4 -4 -5 -5 -5 -4 -4 -4 -4 -4 -4 -4 -4 -4 -3 -2 -2 -0 2 4 6 9 12 12 13 13 12 11 9 8 8 8 9 10 10 10 9 9 9 9 9 9 8 7 6 4 3 3 1 0 1 1 1 -0 -2 -4 -4 -5 -6 -5 -5 -6 -6 -6 -5 -4 -3 -3 -3 -2 -2 -2 -3 -2 -2 -2 -2 -1 -1
-7 -7 -7 -7 -6 -6 -5 -4 -3 -2 -1 -2 -2 -3 -2 -3 -3 -3 -3 -3 -1 -0 1 2 4 6 8 10 10 9 8 7 6 7 6 6 6 6 7 7 8 8 8 8 9 9 8 6 4 2 1 1 3 2 -0 0 0 -1 -2 -3 -4 -5 -5 -5 -5 -5 -5 -5 -6 -6 -6 -5 -4 -4 -4 -4 -4 -4 -4 -3 -2 -1 -1 -0 -0
-7 -7 -6 -6 -6 -5 -5 -4 -3 -3 -2 -1 1 0 -1 -1 -1 -1 -0 0 1 2 3 5 7 7 6 5 5 4 3 3 2 2 2 2 2 3 4 3 3 5 5 5 4 4 3 0 -1 -2 -2 -3 -3 -3 -2 -1 -2 -3 -3 -3 -4 -5 -5 -5 -6 -6 -6 -5 -6 -6 -5 -5 -5 -5 -5 -5 -4 -4 -4 -3 -2 -1 -1 -0 -0
-7 -7 -6 -6 -6 -5 -5 -4 -4 -3 -2 -1 0 1 2 2 3 3 4 4 5 6 5 3 3 2 1 1 1 0 -0 -1 -2 -1 -1 -1 -1 -1 -1 0 0 1 1 1 1 1 0 -2 -3 -4 -4 -6 -6 -6 -6 -7 -6 -7 -7 -6 -6 -6 -7 -7 -7 -7 -6 -5 -5 -5 -5 -6 -6 -5 -5 -5 -4 -4 -3 -3 -2 -2 -1 -0 0
-9 -8 -7 -6 -6 -6 -6 -6 -5 -3 -3 -3 -2 -1 -1 -1 -1 -1 -1 -0 -0 -0 -0 -0 -1 -1 -2 -3 -3 -3 -3 -4 -4 -3 -3 -4 -4 -3 -3 -2 -3 -3 -2 -2 -2 -3 -5 -6 -6 -6 -7 -8 -9 -9 -10 -10 -11 -11 -11 -11 -11 -10 -9 -8 -8 -8 -8 -7 -7 -7 -6 -6 -6 -6 -5 -4 -4 -4 -3 -3 -2 -1 -0 0 1
-10 -10 -9 -8 -8 -8 -7 -7 -6 -6 -6 -5 -4 -4 -3 -3 -3 -3 -3 -3 -3 -2 -3 -3 -3 -3 -4 -5 -4 -5 -6 -6 -7 -7 -6 -6 -5 -4 -4 -5 -6 -7 -7 -7 -7 -8 -8 -9 -9 -10 -10 -10 -11 -12 -12 -12 -12 -13 -13 -11 -6 -4 -7 -8 -10 -11 -9 -9 -9 -9 -8 -8 -7 -7 -5 -5 -5 -4 -4 -3 -2 -1 0 1 1
-12 -11 -10 -10 -9 -9 -8 -8 -7 -7 -7 -7 -7 -6 -5 -5 -5 -4 -4 -4 -4 -4 -4 -4 -4 -5 -5 -5 -6 -6 -7 -8 -9 -8 -8 -8 -9 -9 -9 -9 -9 -10 -10 -10 -10 -10 -10 -10 -10 -11 -11 -12 -12 -13 -13 -14 -14 -15 -13 -7 -2 -4 -7 -8 -8 -9 -11 -12 -11 -10 -9 -8 -8 -8 -7 -6 -5 -4 -3 -2 -1 0 1 1 0
-12 -12 -12 -11 -11 -11 -10 -10 -9 -9 -8 -8 -8 -8 -7 -7 -7 -6 -6 -6 -6 -6 -6 -7 -6 -7 -8 -8 -8 -9 -10 -11 -11 -11 -10 -10 -10 -11 -11 -12 -12 -12 -12 -12 -13 -13 -13 -13 -14 -14 -15 -15 -15 -15 -16 -16 -17 -15 -8 -3 -4 -5 -7 -10 -11 -9 -10 -11 -12 -10 -9 -8 -7 -7 -6 -5 -4 -2 -1 -0 1 1 1 1 0